• In Österreich
  • Länderverzeichnis
  • Für 7 Tage
  • Wassertemperatur
  • Satellitenkarten
  • Wetterkarte
  • News
  • Widgets
  • user-avatar
    Anmelden

    Stündliche Wetter Monterrey

    Heute, 19 September, Mittwoch

    Zeit Temperatur Niederschläge Wind Luftdruck Luftfeuchtigkeit
    00:00 +26°C° 0.1 mm 2 m/S 712 mmHg 80%
    01:00 +26°C° 0.1 mm 2 m/S 712 mmHg 81%
    02:00 +25°C° 0.1 mm 2 m/S 712 mmHg 83%
    03:00 +25°C° 0.3 mm 1 m/S 712 mmHg 84%
    04:00 +25°C° 0.3 mm 1 m/S 712 mmHg 86%
    05:00 +25°C° 0 mm 1 m/S 712 mmHg 86%
    06:00 +26°C° 0.2 mm 2 m/S 712 mmHg 82%
    07:00 +27°C° 0.2 mm 2 m/S 712 mmHg 77%
    08:00 +28°C° 0.2 mm 2 m/S 712 mmHg 73%
    09:00 +29°C° 0.5 mm 2 m/S 712 mmHg 66%
    10:00 +31°C° 0.5 mm 3 m/S 712 mmHg 60%
    11:00 +33°C° 0.5 mm 3 m/S 712 mmHg 53%
    12:00 +33°C° 0.7 mm 4 m/S 712 mmHg 52%
    13:00 +34°C° 0.7 mm 4 m/S 711 mmHg 51%
    14:00 +34°C° 0.7 mm 5 m/S 711 mmHg 50%
    15:00 +33°C° 0.7 mm 4 m/S 711 mmHg 52%
    16:00 +33°C° 0.7 mm 4 m/S 711 mmHg 54%
    17:00 +32°C° 0.7 mm 4 m/S 710 mmHg 57%
    18:00 +30°C° 0.2 mm 4 m/S 711 mmHg 62%
    19:00 +29°C° 0.2 mm 4 m/S 711 mmHg 68%
    20:00 +28°C° 0.2 mm 4 m/S 711 mmHg 74%
    21:00 +27°C° 0.1 mm 3 m/S 711 mmHg 76%
    22:00 +27°C° 0.1 mm 3 m/S 711 mmHg 78%
    23:00 +26°C° 0.1 mm 3 m/S 711 mmHg 81%

    Morgen, 20 September, Donnerstag

    Zeit Temperatur Niederschläge Wind Luftdruck Luftfeuchtigkeit
    00:00 +26°C° 0 mm 3 m/S 711 mmHg 81%
    01:00 +26°C° 0 mm 3 m/S 711 mmHg 82%
    02:00 +25°C° 0 mm 2 m/S 711 mmHg 83%
    03:00 +25°C° 0 mm 2 m/S 711 mmHg 83%
    04:00 +25°C° 0 mm 2 m/S 711 mmHg 83%
    05:00 +25°C° 0 mm 2 m/S 711 mmHg 84%
    06:00 +26°C° 0 mm 2 m/S 711 mmHg 79%
    07:00 +27°C° 0 mm 1 m/S 712 mmHg 75%
    08:00 +28°C° 0 mm 1 m/S 712 mmHg 70%
    09:00 +30°C° 0 mm 2 m/S 712 mmHg 65%
    10:00 +31°C° 0 mm 2 m/S 712 mmHg 59%
    11:00 +34°C° 0 mm 2 m/S 712 mmHg 53%
    12:00 +34°C° 0.4 mm 3 m/S 711 mmHg 51%
    13:00 +35°C° 0.4 mm 3 m/S 711 mmHg 50%
    14:00 +35°C° 0.4 mm 3 m/S 710 mmHg 48%
    15:00 +35°C° 0.6 mm 3 m/S 710 mmHg 51%
    16:00 +34°C° 0.6 mm 3 m/S 710 mmHg 54%
    17:00 +33°C° 0.6 mm 3 m/S 709 mmHg 57%
    18:00 +31°C° 0.6 mm 3 m/S 710 mmHg 60%
    19:00 +30°C° 0.6 mm 3 m/S 710 mmHg 64%
    20:00 +29°C° 0.6 mm 3 m/S 711 mmHg 68%
    21:00 +29°C° 0.4 mm 3 m/S 711 mmHg 71%
    22:00 +28°C° 0.4 mm 3 m/S 711 mmHg 73%
    23:00 +28°C° 0.4 mm 3 m/S 711 mmHg 76%

    übermorgen, 21 September, Freitag

    Zeit Temperatur Niederschläge Wind Luftdruck Luftfeuchtigkeit
    00:00 +27°C° 0.5 mm 2 m/S 711 mmHg 78%
    01:00 +27°C° 0.5 mm 2 m/S 710 mmHg 80%
    02:00 +27°C° 0.5 mm 2 m/S 710 mmHg 81%
    03:00 +26°C° 0.3 mm 2 m/S 710 mmHg 82%
    04:00 +26°C° 0.3 mm 1 m/S 710 mmHg 83%
    05:00 +26°C° 0.3 mm 1 m/S 710 mmHg 84%
    06:00 +27°C° 0.2 mm 1 m/S 710 mmHg 80%
    07:00 +28°C° 0.2 mm 1 m/S 711 mmHg 75%
    08:00 +29°C° 0.2 mm 1 m/S 711 mmHg 70%
    09:00 +31°C° 0.5 mm 1 m/S 711 mmHg 65%
    10:00 +32°C° 0.5 mm 2 m/S 711 mmHg 59%
    11:00 +34°C° 0.5 mm 2 m/S 711 mmHg 54%
    12:00 +35°C° 1 mm 2 m/S 711 mmHg 53%
    13:00 +35°C° 1 mm 2 m/S 710 mmHg 51%
    14:00 +36°C° 1 mm 2 m/S 710 mmHg 50%
    15:00 +35°C° 1 mm 3 m/S 710 mmHg 53%
    16:00 +34°C° 1 mm 3 m/S 710 mmHg 56%
    17:00 +33°C° 1 mm 3 m/S 710 mmHg 59%
    18:00 +31°C° 0.9 mm 3 m/S 710 mmHg 63%
    19:00 +30°C° 0.9 mm 3 m/S 711 mmHg 68%
    20:00 +29°C° 0.9 mm 2 m/S 711 mmHg 72%
    21:00 +29°C° 1.3 mm 2 m/S 712 mmHg 75%
    22:00 +28°C° 1.3 mm 2 m/S 712 mmHg 78%
    23:00 +28°C° 1.3 mm 1 m/S 712 mmHg 81%

    22 September, Samstag

    Zeit Temperatur Niederschläge Wind Luftdruck Luftfeuchtigkeit
    00:00 +27°C° 1.2 mm 1 m/S 711 mmHg 82%
    01:00 +27°C° 1.2 mm 1 m/S 711 mmHg 83%
    02:00 +27°C° 1.2 mm 1 m/S 711 mmHg 84%
    03:00 +27°C° 1.3 mm 1 m/S 711 mmHg 84%
    04:00 +27°C° 1.3 mm 1 m/S 711 mmHg 85%
    05:00 +25°C° 1.3 mm 0 m/S 711 mmHg 85%
    06:00 +27°C° 1 mm 1 m/S 712 mmHg 83%
    07:00 +27°C° 1 mm 1 m/S 712 mmHg 81%
    08:00 +28°C° 1 mm 1 m/S 713 mmHg 79%
    09:00 +28°C° 0.8 mm 1 m/S 713 mmHg 77%
    10:00 +29°C° 0.8 mm 2 m/S 713 mmHg 74%
    11:00 +29°C° 0.8 mm 2 m/S 713 mmHg 72%
    12:00 +29°C° 0.6 mm 2 m/S 713 mmHg 72%
    13:00 +29°C° 0.6 mm 2 m/S 712 mmHg 71%
    14:00 +29°C° 0.6 mm 2 m/S 711 mmHg 70%
    15:00 +29°C° 0.4 mm 2 m/S 711 mmHg 72%
    16:00 +29°C° 0.4 mm 2 m/S 711 mmHg 74%
    17:00 +28°C° 0.4 mm 2 m/S 711 mmHg 76%
    18:00 +28°C° 0.9 mm 2 m/S 712 mmHg 79%
    19:00 +27°C° 0.9 mm 2 m/S 712 mmHg 83%
    20:00 +26°C° 0.9 mm 1 m/S 713 mmHg 86%
    21:00 +26°C° 0.9 mm 1 m/S 713 mmHg 87%
    22:00 +26°C° 0.9 mm 1 m/S 713 mmHg 87%
    23:00 +26°C° 0.9 mm 1 m/S 713 mmHg 87%

    23 September, Sonntag

    Zeit Temperatur Niederschläge Wind Luftdruck Luftfeuchtigkeit
    00:00 +26°C° 0.6 mm 1 m/S 713 mmHg 88%
    01:00 +25°C° 0.6 mm 1 m/S 712 mmHg 88%
    02:00 +25°C° 0.6 mm 1 m/S 712 mmHg 89%
    03:00 +25°C° 0.4 mm 1 m/S 712 mmHg 89%
    04:00 +25°C° 0.4 mm 1 m/S 712 mmHg 90%
    05:00 +24°C° 0.4 mm 1 m/S 712 mmHg 91%
    06:00 +25°C° 0.2 mm 1 m/S 713 mmHg 87%
    07:00 +26°C° 0.2 mm 2 m/S 713 mmHg 84%
    08:00 +26°C° 0.2 mm 2 m/S 714 mmHg 80%
    09:00 +27°C° 0.3 mm 2 m/S 714 mmHg 76%
    10:00 +28°C° 0.3 mm 2 m/S 713 mmHg 73%
    11:00 +29°C° 0.3 mm 2 m/S 713 mmHg 69%
    12:00 +29°C° 0.6 mm 2 m/S 712 mmHg 68%
    13:00 +29°C° 0.6 mm 2 m/S 712 mmHg 67%
    14:00 +29°C° 0.6 mm 2 m/S 711 mmHg 67%
    15:00 +29°C° 0.6 mm 2 m/S 711 mmHg 68%
    16:00 +29°C° 0.6 mm 2 m/S 711 mmHg 70%
    17:00 +28°C° 0.6 mm 2 m/S 711 mmHg 72%
    18:00 +28°C° 0.3 mm 2 m/S 711 mmHg 74%
    19:00 +27°C° 0.3 mm 2 m/S 712 mmHg 77%
    20:00 +26°C° 0.3 mm 2 m/S 712 mmHg 79%
    21:00 +26°C° 0.1 mm 2 m/S 712 mmHg 80%
    22:00 +26°C° 0.1 mm 1 m/S 712 mmHg 81%
    23:00 +26°C° 0.1 mm 1 m/S 712 mmHg 81%

    24 September, Montag

    Zeit Temperatur Niederschläge Wind Luftdruck Luftfeuchtigkeit
    00:00 +25°C° 0.2 mm 1 m/S 712 mmHg 82%
    01:00 +25°C° 0.2 mm 1 m/S 711 mmHg 83%
    02:00 +25°C° 0.2 mm 1 m/S 711 mmHg 84%
    03:00 +25°C° 0.3 mm 1 m/S 711 mmHg 85%
    04:00 +25°C° 0.3 mm 1 m/S 711 mmHg 86%
    05:00 +24°C° 0.3 mm 1 m/S 712 mmHg 87%
    06:00 +25°C° 0.3 mm 1 m/S 712 mmHg 84%
    07:00 +26°C° 0.3 mm 1 m/S 712 mmHg 81%
    08:00 +27°C° 0.3 mm 1 m/S 713 mmHg 78%
    09:00 +28°C° 0.4 mm 1 m/S 713 mmHg 74%
    10:00 +29°C° 0.4 mm 1 m/S 712 mmHg 70%
    11:00 +29°C° 0.4 mm 1 m/S 712 mmHg 66%
    12:00 +30°C° 0.7 mm 1 m/S 711 mmHg 65%
    13:00 +30°C° 0.7 mm 2 m/S 711 mmHg 63%
    14:00 +31°C° 0.7 mm 2 m/S 710 mmHg 62%
    15:00 +30°C° 1.2 mm 2 m/S 710 mmHg 64%
    16:00 +30°C° 1.2 mm 2 m/S 710 mmHg 67%
    17:00 +29°C° 1.2 mm 2 m/S 710 mmHg 70%
    18:00 +29°C° 1.2 mm 2 m/S 710 mmHg 73%
    19:00 +28°C° 1.2 mm 2 m/S 711 mmHg 77%
    20:00 +27°C° 1.2 mm 2 m/S 711 mmHg 81%
    21:00 +26°C° 1.4 mm 2 m/S 711 mmHg 82%
    22:00 +26°C° 1.4 mm 1 m/S 711 mmHg 83%
    23:00 +26°C° 1.4 mm 1 m/S 711 mmHg 85%
    Mehr zeigen